Date String (YYYY-MM-DD hh:mm:ss) UTC,Instrument flags,Ambient pressure (hPa),Sample flow (lpm),Bypass flow (lpm),Sample temperature (°C),Ambient temperature (°C),ASC tube jacket temperature (°C),LED temperature (°C),Box temperature (°C),Sample RH (%),Span deviation,Mass concentration (μg/m³),Mass concentration (μg/m³),Mass concentration (μg/m³)
DateTimeUTC,F1_M11,P_M11,Q1_M11,Q2_M11,T1_M11,T2_M11,T3_M11,T4_M11,T5_M11,U1_M11,ZSPAN_M11,X0_M11,X2_M11,X1_M11
2022-06-17 20:00:00,,0825.2,5.01,0.00,30.2,28.0,00.0,38.5,31.5,34.0,0002.1,0026.85,0012.72,0009.60
2022-06-17 20:01:00,,0825.2,5.02,0.00,30.1,27.5,00.0,38.4,31.3,33.7,0001.8,0026.60,0012.67,0009.56
2022-06-17 20:02:00,,0825.1,4.99,0.00,30.0,27.1,00.0,38.4,31.2,33.9,0001.4,0026.10,0012.60,0009.51
2022-06-17 20:03:00,,0825.1,4.99,0.00,30.0,27.1,00.0,38.4,31.2,34.0,0001.7,0026.04,0012.42,0009.44
2022-06-17 20:04:00,,0825.1,5.01,0.00,29.9,27.2,00.0,38.4,31.2,34.1,0002.1,0025.63,0012.32,0009.38
2022-06-17 20:05:00,,0825.1,5.00,0.00,29.9,27.4,00.0,38.4,31.2,34.1,0002.1,0026.68,0012.31,0009.35
2022-06-17 20:06:00,,0825.0,5.00,0.00,29.9,27.6,00.0,38.4,31.3,34.1,0002.5,0028.01,0012.32,0009.33
2022-06-17 20:07:00,,0824.9,5.00,0.00,29.9,27.8,00.0,38.5,31.4,34.1,0002.7,0028.09,0012.39,0009.30
2022-06-17 20:08:00,,0824.9,5.00,0.00,29.9,28.0,00.0,38.5,31.4,34.1,0003.2,0028.67,0012.42,0009.27
2022-06-17 20:09:00,,0824.9,4.99,0.00,29.9,28.0,00.0,38.5,31.4,34.2,0003.5,0028.73,0012.42,0009.28
2022-06-17 20:10:00,,0825.0,4.99,0.00,29.9,27.4,00.0,38.4,31.2,34.3,0003.4,0028.83,0012.50,0009.31
2022-06-17 20:11:00,,0824.9,5.01,0.00,29.8,27.0,00.0,38.4,31.1,34.2,0003.4,0028.27,0012.58,0009.37
2022-06-17 20:12:00,,0824.9,5.00,0.00,29.7,27.0,00.0,38.4,31.1,34.2,0003.2,0027.72,0012.67,0009.42
2022-06-17 20:13:00,,0824.9,5.01,0.00,29.7,27.1,00.0,38.3,31.1,34.5,0003.7,0027.67,0012.87,0009.49
2022-06-17 20:14:00,,0824.9,4.97,0.00,29.6,27.3,00.0,38.3,31.1,34.9,0003.7,0027.70,0013.15,0009.59
2022-06-17 20:15:00,,0824.9,4.99,0.00,29.7,27.5,00.0,38.3,31.2,35.5,0003.5,0028.24,0013.26,0009.68
2022-06-17 20:16:00,,0824.9,5.00,0.00,30.0,27.7,00.0,38.3,31.5,35.6,0003.5,0029.25,0013.30,0009.74
2022-06-17 20:17:00,,0824.9,5.00,0.00,30.3,27.9,00.0,38.4,31.7,35.2,0003.4,0029.22,0013.35,0009.74
2022-06-17 20:18:00,,0824.9,5.00,0.00,30.7,28.1,00.0,38.4,31.9,34.3,0003.3,0030.32,0013.34,0009.73
2022-06-17 20:19:00,,0824.9,5.00,0.00,30.9,27.8,00.0,38.4,31.7,33.9,0003.2,0029.57,0013.25,0009.71
2022-06-17 20:20:00,,0824.9,5.00,0.00,30.9,27.3,00.0,38.4,31.5,33.8,0003.1,0030.32,0013.24,0009.69
2022-06-17 20:21:00,,0824.9,5.00,0.00,30.9,27.1,00.0,38.5,31.4,33.7,0002.8,0031.29,0013.31,0009.66
2022-06-17 20:22:00,,0824.8,5.00,0.00,30.9,27.1,00.0,38.5,31.3,34.4,0002.9,0031.71,0013.37,0009.64
2022-06-17 20:23:00,,0824.8,5.00,0.00,30.8,27.2,00.0,38.6,31.4,34.8,0003.2,0032.27,0013.33,0009.60
2022-06-17 20:24:00,,0824.8,4.99,0.00,30.9,27.4,00.0,38.7,31.5,35.4,0002.4,0033.36,0013.24,0009.56
2022-06-17 20:25:00,,0824.8,5.01,0.00,31.1,27.7,00.0,38.7,31.7,35.2,0002.5,0033.77,0013.16,0009.51
2022-06-17 20:26:00,,0824.9,4.99,0.00,31.4,27.9,00.0,38.8,31.9,34.5,0002.6,0034.20,0013.12,0009.42
2022-06-17 20:27:00,,0824.9,5.00,0.00,31.6,28.1,00.0,38.9,32.0,34.1,0002.9,0032.80,0013.07,0009.31
2022-06-17 20:28:00,,0824.9,5.00,0.00,31.7,28.1,00.0,39.0,31.9,33.8,0003.1,0032.01,0013.00,0009.26
2022-06-17 20:29:00,,0824.9,5.01,0.00,31.7,27.7,00.0,39.0,31.8,33.7,0001.3,0030.53,0012.97,0009.22
2022-06-17 20:30:00,,0824.9,4.99,0.00,31.6,27.3,00.0,39.0,31.6,33.7,0002.8,0030.25,0013.00,0009.19
2022-06-17 20:31:00,,0824.9,4.99,0.00,31.5,27.2,00.0,39.1,31.6,34.1,0002.5,0029.18,0012.93,0009.15
2022-06-17 20:32:00,,0824.9,5.00,0.00,31.4,27.3,00.0,39.1,31.6,33.9,0002.7,0028.45,0012.80,0009.09
2022-06-17 20:33:00,,0824.9,5.01,0.00,31.4,27.5,00.0,39.2,31.6,33.8,0002.3,0028.61,0012.76,0009.04
2022-06-17 20:34:00,,0824.9,5.01,0.00,31.3,27.7,00.0,39.2,31.7,33.6,0001.8,0028.83,0012.69,0008.98
2022-06-17 20:35:00,,0825.0,5.00,0.00,31.3,27.9,00.0,39.2,31.8,33.5,0002.0,0028.56,0012.66,0008.93
2022-06-17 20:36:00,,0825.0,4.99,0.00,31.2,28.1,00.0,39.3,31.8,33.3,0001.7,0027.70,0012.56,0008.90
2022-06-17 20:37:00,,0825.0,5.00,0.00,31.2,27.9,00.0,39.2,31.7,33.4,0001.2,0026.53,0012.41,0008.88
2022-06-17 20:38:00,,0824.9,5.01,0.00,31.1,27.4,00.0,39.2,31.5,33.5,0000.8,0025.59,0012.30,0008.91
2022-06-17 20:39:00,,0824.9,4.99,0.00,31.0,27.1,00.0,39.2,31.5,33.8,0000.5,0026.13,0012.35,0008.95
2022-06-17 20:40:00,,0824.9,5.00,0.00,30.9,27.1,00.0,39.2,31.4,33.7,0000.6,0027.09,0012.30,0008.99
2022-06-17 20:41:00,,0824.7,5.01,0.00,30.8,27.3,00.0,39.1,31.5,33.5,0000.9,0027.80,0012.31,0009.02
2022-06-17 20:42:00,,0824.7,5.00,0.00,30.7,27.5,00.0,39.1,31.5,32.1,0001.1,0029.42,0012.38,0009.06
2022-06-17 20:43:00,,0824.6,5.00,0.00,30.7,27.7,00.0,39.1,31.6,30.8,0000.9,0029.20,0012.42,0009.16
2022-06-17 20:44:00,,0824.6,4.99,0.00,30.7,27.9,00.0,39.1,31.6,30.6,0001.2,0029.26,0012.49,0009.25
2022-06-17 20:45:00,,0824.7,5.00,0.00,30.7,28.1,00.0,39.1,31.7,30.6,0002.0,0029.33,0012.63,0009.37
2022-06-17 20:46:00,,0824.7,5.00,0.00,30.6,27.9,00.0,39.1,31.6,30.6,0002.6,0029.71,0012.72,0009.49
2022-06-17 20:47:00,,0824.5,4.99,0.00,30.6,27.3,00.0,39.0,31.5,31.0,0002.4,0030.27,0012.78,0009.60
2022-06-17 20:48:00,,0824.6,5.00,0.00,30.5,27.1,00.0,38.9,31.4,30.9,0003.0,0030.59,0012.97,0009.70
2022-06-17 20:49:00,,0824.5,5.01,0.00,30.4,27.1,00.0,38.9,31.3,30.8,0003.2,0031.74,0013.25,0009.81
2022-06-17 20:50:00,,0824.4,4.99,0.00,30.3,27.2,00.0,38.9,31.4,30.7,0003.4,0031.36,0013.23,0009.88
2022-06-17 20:51:00,,0824.4,4.99,0.00,30.3,27.4,00.0,38.9,31.4,30.6,0003.6,0030.49,0013.35,0009.99
2022-06-17 20:52:00,,0824.4,5.01,0.00,30.2,27.6,00.0,38.9,31.4,30.8,0003.4,0030.01,0013.42,0010.07
2022-06-17 20:53:00,,0824.4,5.01,0.00,30.2,27.8,00.0,38.8,31.5,31.1,0003.5,0028.83,0013.44,0010.14
2022-06-17 20:54:00,,0824.4,5.00,0.00,30.2,28.1,00.0,38.8,31.6,31.2,0003.6,0028.34,0013.42,0010.19
2022-06-17 20:55:00,,0824.5,4.99,0.00,30.2,28.2,00.0,38.8,31.6,31.3,0003.9,0028.50,0013.37,0010.22
2022-06-17 20:56:00,,0824.4,5.00,0.00,30.2,27.8,00.0,38.8,31.5,31.4,0003.6,0028.38,0013.27,0010.22
2022-06-17 20:57:00,,0824.4,5.00,0.00,30.1,27.2,00.0,38.7,31.3,31.5,0003.7,0026.96,0013.20,0010.24
2022-06-17 20:58:00,,0824.4,5.00,0.00,30.0,27.1,00.0,38.7,31.2,31.5,0003.8,0026.27,0013.19,0010.23
2022-06-17 20:59:00,,0824.4,5.00,0.00,30.0,27.1,00.0,38.6,31.2,31.5,0003.8,0026.44,0013.17,0010.25
